Location: ShareBrained
(45.5589°N, 122.6491°W)
Time: 08:27:52
(UTC-08:00)

NOAA 19 - Pass Details

Date: 26 January 2020
Orbit: 840 x 861 km, 99.2° (Epoch: 25 February)

Event Time Altitude Azimuth Distance (km) Brightness Sun altitude
Rises 04:24:20 0° 36° (NE) 3,405 8.9 -33.9°
Reaches altitude 10° 04:29:03 10° 73° (ENE) 2,463 8.4 -33.1°
Maximum altitude 04:30:18 11° 86° (E) 2,409 8.4 -32.9°
Drops below altitude 10° 04:31:32 10° 100° (E) 2,460 8.4 -32.7°
Sets 04:36:12 0° 137° (SE) 3,389 8.8 -31.8°
